Skip Page Navigation
NASA JPL Caltech
NASA Logo - Jet Propulsion Laboratory + View the NASA Portal
+ Center for Near-Earth Object Studies
JPL Home Earth Solar System Stars & Galaxies Technology
JPL Solar System Dynamics
BODIES ORBITS EPHEMERIDES TOOLS PHYSICAL DATA DISCOVERY FAQ SITE MAP
JPL Small-Body Database Browser
Search: [ help ]  
100463 (1996 TU14)
Classification: Main-belt Asteroid          SPK-ID: 2100463
Ephemeris | Orbit Diagram | Orbital Elements | Mission Design | Physical Parameters | Discovery Circumstances ]

[ show orbit diagram ]
Orbital Elements at Epoch 2459200.5 (2020-Dec-17.0) TDB
Reference: JPL 23 (heliocentric ecliptic J2000)
 Element Value Uncertainty (1-sigma)   Units 
e .14642233788289 4.8166e-08  
a 2.699962034252349 1.3229e-08 au
q 2.304627281002076 1.3103e-07 au
i 10.13685257977269 5.2104e-06 deg
node 206.5169107617236 2.3488e-05 deg
peri 167.2516468077004 2.7732e-05 deg
M 168.7601571235761 1.4672e-05 deg
tp 2458440.869606093944
(2018-Nov-18.36960609)
6.4419e-05 TDB
period 1620.447305023139
4.44
1.1909e-05
3.261e-08
d
yr
n .222160880445822 1.6327e-09 deg/d
Q 3.095296787502621 1.5166e-08 au
  Orbit Determination Parameters
   # obs. used (total)      896  
   data-arc span      12250 days (33.54 yr)  
   first obs. used      1987-08-31  
   last obs. used      2021-03-15  
   planetary ephem.      DE441  
   SB-pert. ephem.      SB441-N16  
   condition code      0  
   norm. resid. RMS      .53546  
   source      ORB  
   producer      Otto Matic  
   solution date      2021-Apr-13 15:32:17  

Additional Information
 Earth MOID = 1.30566 au 
 Jupiter MOID = 2.3749 au 
 T_jup = 3.330 
[ show covariance matrix ]

Ephemeris | Orbit Diagram | Orbital Elements | Mission Design | Physical Parameters | Discovery Circumstances ]

Physical Parameter Table
Parameter Symbol Value Units Sigma Reference Notes
absolute magnitude H 15.19   n/a E2021B55  

100463 (1996 TU14)          Discovered 1996-Oct-09 by Okuni, T. at Nanyo
Reference: 20051019/Numbers.arcLast Updated: 2005-10-26

Alternate Designations
 1996 TU14 = 1987 QQ4 = 2000 OJ41 
Ephemeris | Orbit Diagram | Orbital Elements | Mission Design | Physical Parameters | Discovery Circumstances ]
ABOUT SSD CREDITS/AWARDS PRIVACY/COPYRIGHT GLOSSARY LINKS
FirstGov 2021-Apr-20 08:25 UT
(server date/time)  
NASA Home Page
Site Manager:   Ryan S. Park
Webmaster  Alan B. Chamberlin